Regional Weather Roundup
Issued by NWS

Home | Current Version | Previous Version | Graphics & Text | Print | Product List | Glossary On
Versions: 1 2 3 4 5 6 7 8 9 10 11 12 13 14 15 16 17 18 19 20 21 22 23 24 25 26 27 28 29 30 31 32 33 34 35 36 37 38 39 40 41 42 43 44 45 46 47 48 49 50
000
ASUS43 KFSD 290110
RWRSD

WEATHER ROUNDUP FOR SOUTH DAKOTA
NATIONAL WEATHER SERVICE SIOUX FALLS SD
800 PM CDT WED SEP 28 2016

NOTE: "FAIR" INDICATES FEW OR NO CLOUDS BELOW 12,000 FEET WITH NO
SIGNIFICANT WEATHER AND/OR OBSTRUCTIONS TO VISIBILITY.


SDZ001>005-009-010-012>017-290200-
NORTHWEST AND NORTH CENTRAL SOUTH DAKOTA

CITY           SKY/WX    TMP DP  RH WIND       PRES   REMARKS
BUFFALO          N/A     68  46  45 E13       30.21R
MOBRIDGE       CLEAR     56  45  66 NE7       30.30R
$$

SDZ012>016-024>037-041>051-057-063-072>074-290200-
SOUTHWEST AND SOUTH CENTRAL SOUTH DAKOTA

CITY           SKY/WX    TMP DP  RH WIND       PRES   REMARKS
RAPID CTY ARPT CLEAR     62  43  49 E12       30.29R
PIERRE         CLEAR     58  42  55 E6        30.29R
CUSTER         CLEAR     60  42  51 E8        30.39R
ELLSWORTH AFB  CLEAR     66  44  45 E8        30.29R
PHILIP         CLEAR     57  33  40 E9        30.29R
PINE RIDGE     CLEAR     66  44  45 E9        30.28R
WINNER         FAIR      55  46  71 E9        30.31R
$$

SDZ004>011-016>023-039-040-290200-
NORTHEAST SOUTH DAKOTA

CITY           SKY/WX    TMP DP  RH WIND       PRES   REMARKS
ABERDEEN         N/A     53  41  63 NE6       30.34R
WATERTOWN      CLEAR     50  44  80 NE5       30.33R
BROOKINGS      CLEAR     53  46  77 NE3       30.33R
SISSETON         N/A     48  44  86 N5        30.34R
$$

SDZ017-020-022-023-036>040-048>070-290200-
SOUTHEAST SOUTH DAKOTA

CITY           SKY/WX    TMP DP  RH WIND       PRES   REMARKS
SIOUX FALLS    CLEAR     53  46  77 CALM      30.32R
HURON          CLEAR     55  44  66 E6        30.31R
CHAMBERLAIN    CLEAR     57  47  71 SE5       30.32R
MITCHELL       CLEAR     57  43  59 NE3       30.31R
YANKTON        CLEAR     55  45  67 NE9       30.29R
$$

ABBREVIATIONS USED IN REMARKS
   TC - TEMPERATURE IN CELSIUS
  WCI - WIND CHILL INDEX
   HX - HEAT INDEX
  VSB - VISIBILITY





USA.gov is the U.S. government's official web portal to all federal, state and local government web resources and services.